Time,TemperatureF,DewpointF,PressureIn,WindDirection,WindDirectionDegrees,WindSpeedMPH,WindSpeedGustMPH,Humidity,HourlyPrecipIn,Conditions,Clouds,dailyrainin,SoftwareType,DateUTC
2013-05-21 00:03:00,65.3,64.0,30.04,ENE,67,0.0,0.0,95,0.00,,,0.00,weatherlink.com 1.10,2013-05-21 04:03:00,
2013-05-21 00:18:00,65.3,64.0,30.04,ENE,66,0.0,0.0,95,0.00,,,0.00,weatherlink.com 1.10,2013-05-21 04:18:00,
2013-05-21 00:33:00,65.1,64.0,30.04,ENE,67,0.0,0.0,95,0.00,,,0.00,weatherlink.com 1.10,2013-05-21 04:33:00,
2013-05-21 00:48:00,64.8,63.0,30.04,ENE,67,0.0,0.0,95,0.00,,,0.00,weatherlink.com 1.10,2013-05-21 04:48:00,
2013-05-21 01:03:00,64.8,63.0,30.04,ENE,65,0.0,0.0,95,0.00,,,0.00,weatherlink.com 1.10,2013-05-21 05:03:00,
2013-05-21 01:18:00,64.6,63.0,30.04,ENE,66,0.0,0.0,95,0.00,,,0.00,weatherlink.com 1.10,2013-05-21 05:18:00,
2013-05-21 01:34:00,64.4,63.0,30.05,ENE,67,0.0,0.0,95,0.00,,,0.00,weatherlink.com 1.10,2013-05-21 05:34:00,
2013-05-21 01:49:00,64.2,63.0,30.04,ENE,66,0.0,0.0,95,0.00,,,0.00,weatherlink.com 1.10,2013-05-21 05:49:00,
2013-05-21 02:04:00,64.1,63.0,30.04,ENE,65,0.0,0.0,95,0.00,,,0.00,weatherlink.com 1.10,2013-05-21 06:04:00,
2013-05-21 02:19:00,64.0,63.0,30.03,ENE,65,0.0,0.0,95,0.00,,,0.00,weatherlink.com 1.10,2013-05-21 06:19:00,
2013-05-21 02:34:00,63.9,63.0,30.03,ENE,67,0.0,0.0,95,0.00,,,0.00,weatherlink.com 1.10,2013-05-21 06:34:00,
2013-05-21 02:49:00,64.0,63.0,30.03,ENE,66,0.0,0.0,95,0.00,,,0.00,weatherlink.com 1.10,2013-05-21 06:49:00,
2013-05-21 03:04:00,64.1,63.0,30.03,ENE,65,0.0,0.0,95,0.00,,,0.00,weatherlink.com 1.10,2013-05-21 07:04:00,
2013-05-21 03:19:00,64.0,63.0,30.03,ENE,66,0.0,0.0,95,0.00,,,0.00,weatherlink.com 1.10,2013-05-21 07:19:00,
2013-05-21 03:34:00,63.8,62.0,30.03,ENE,67,0.0,0.0,95,0.00,,,0.00,weatherlink.com 1.10,2013-05-21 07:34:00,
2013-05-21 03:49:00,63.7,62.0,30.02,ENE,66,0.0,0.0,95,0.00,,,0.00,weatherlink.com 1.10,2013-05-21 07:49:00,
2013-05-21 04:04:00,63.8,62.0,30.02,ENE,67,0.0,0.0,95,0.00,,,0.00,weatherlink.com 1.10,2013-05-21 08:04:00,
2013-05-21 04:19:00,63.9,63.0,30.02,ENE,67,0.0,0.0,95,0.00,,,0.00,weatherlink.com 1.10,2013-05-21 08:19:00,
2013-05-21 04:34:00,64.0,63.0,30.02,ENE,66,0.0,0.0,96,0.00,,,0.00,weatherlink.com 1.10,2013-05-21 08:34:00,
2013-05-21 04:49:00,63.5,62.0,30.02,ENE,66,0.0,0.0,95,0.00,,,0.00,weatherlink.com 1.10,2013-05-21 08:49:00,
2013-05-21 05:04:00,63.6,62.0,30.01,ENE,65,0.0,0.0,95,0.00,,,0.00,weatherlink.com 1.10,2013-05-21 09:04:00,
2013-05-21 05:19:00,63.4,62.0,30.02,ENE,67,0.0,0.0,95,0.00,,,0.00,weatherlink.com 1.10,2013-05-21 09:19:00,
2013-05-21 05:34:00,63.5,62.0,30.02,ENE,67,0.0,0.0,95,0.00,,,0.00,weatherlink.com 1.10,2013-05-21 09:34:00,
2013-05-21 05:49:00,63.4,62.0,30.03,ENE,66,0.0,0.0,95,0.00,,,0.00,weatherlink.com 1.10,2013-05-21 09:49:00,
2013-05-21 06:04:00,63.4,62.0,30.03,ENE,66,0.0,0.0,96,0.00,,,0.00,weatherlink.com 1.10,2013-05-21 10:04:00,
2013-05-21 06:19:00,63.6,63.0,30.03,ENE,67,0.0,0.0,96,0.00,,,0.00,weatherlink.com 1.10,2013-05-21 10:19:00,
2013-05-21 06:34:00,63.8,63.0,30.03,ENE,67,0.0,0.0,96,0.00,,,0.00,weatherlink.com 1.10,2013-05-21 10:34:00,
2013-05-21 06:49:00,63.9,63.0,30.04,ENE,66,0.0,0.0,96,0.00,,,0.00,weatherlink.com 1.10,2013-05-21 10:49:00,
2013-05-21 07:04:00,64.1,63.0,30.05,ENE,66,0.0,0.0,96,0.00,,,0.00,weatherlink.com 1.10,2013-05-21 11:04:00,
2013-05-21 07:19:00,64.3,63.0,30.05,ENE,66,0.0,0.0,96,0.00,,,0.00,weatherlink.com 1.10,2013-05-21 11:19:00,
2013-05-21 07:34:00,64.5,63.0,30.05,ENE,66,0.0,0.0,96,0.00,,,0.00,weatherlink.com 1.10,2013-05-21 11:34:00,
2013-05-21 07:49:00,64.9,64.0,30.06,ENE,66,0.0,0.0,96,0.00,,,0.00,weatherlink.com 1.10,2013-05-21 11:49:00,
2013-05-21 08:04:00,65.4,64.0,30.06,ENE,67,0.0,0.0,96,0.00,,,0.00,weatherlink.com 1.10,2013-05-21 12:04:00,
2013-05-21 08:19:00,65.8,65.0,30.05,ENE,66,0.0,0.0,96,0.00,,,0.00,weatherlink.com 1.10,2013-05-21 12:19:00,
2013-05-21 08:34:00,66.4,65.0,30.06,ENE,67,0.0,0.0,96,0.00,,,0.00,weatherlink.com 1.10,2013-05-21 12:34:00,
2013-05-21 08:49:00,67.2,66.0,30.06,ENE,67,0.0,0.0,96,0.00,,,0.00,weatherlink.com 1.10,2013-05-21 12:49:00,
2013-05-21 09:04:00,68.0,67.0,30.06,ENE,67,0.0,0.0,96,0.00,,,0.00,weatherlink.com 1.10,2013-05-21 13:04:00,
2013-05-21 09:19:00,68.5,67.0,30.06,SSE,147,0.0,0.0,96,0.00,,,0.00,weatherlink.com 1.10,2013-05-21 13:19:00,
2013-05-21 09:34:00,69.7,68.0,30.06,NNE,31,0.0,2.0,95,0.00,,,0.00,weatherlink.com 1.10,2013-05-21 13:34:00,
2013-05-21 09:49:00,71.2,69.0,30.05,ESE,105,0.0,2.0,91,0.00,,,0.00,weatherlink.com 1.10,2013-05-21 13:49:00,
2013-05-21 10:04:00,72.9,69.0,30.05,ESE,103,0.0,0.0,88,0.00,,,0.00,weatherlink.com 1.10,2013-05-21 14:04:00,
2013-05-21 10:19:00,74.1,69.0,30.04,SE,124,0.0,0.0,84,0.00,,,0.00,weatherlink.com 1.10,2013-05-21 14:19:00,
2013-05-21 10:34:00,75.1,70.0,30.03,ENE,66,0.0,0.0,83,0.00,,,0.00,weatherlink.com 1.10,2013-05-21 14:34:00,
2013-05-21 10:50:00,75.5,70.0,30.03,SE,134,0.0,0.0,83,0.00,,,0.00,weatherlink.com 1.10,2013-05-21 14:50:00,
2013-05-21 11:05:00,76.7,70.0,30.03,East,82,0.0,0.0,79,0.00,,,0.00,weatherlink.com 1.10,2013-05-21 15:05:00,
2013-05-21 11:20:00,77.1,69.0,30.03,East,82,0.0,0.0,76,0.00,,,0.00,weatherlink.com 1.10,2013-05-21 15:20:00,
2013-05-21 11:35:00,78.1,70.0,30.03,East,85,0.0,0.0,75,0.00,,,0.00,weatherlink.com 1.10,2013-05-21 15:35:00,
2013-05-21 11:50:00,78.6,70.0,30.03,East,85,0.0,0.0,75,0.00,,,0.00,weatherlink.com 1.10,2013-05-21 15:50:00,
2013-05-21 12:05:00,80.7,71.0,30.03,NE,54,0.0,0.0,71,0.00,,,0.00,weatherlink.com 1.10,2013-05-21 16:05:00,
2013-05-21 12:20:00,81.2,71.0,30.03,NE,54,0.0,0.0,72,0.00,,,0.00,weatherlink.com 1.10,2013-05-21 16:20:00,
2013-05-21 12:35:00,81.7,71.0,30.02,NE,54,0.0,0.0,70,0.00,,,0.00,weatherlink.com 1.10,2013-05-21 16:35:00,
2013-05-21 12:50:00,81.7,70.0,30.02,NE,53,0.0,0.0,67,0.00,,,0.00,weatherlink.com 1.10,2013-05-21 16:50:00,
2013-05-21 13:05:00,81.4,69.0,30.02,SW,221,0.0,0.0,66,0.00,,,0.00,weatherlink.com 1.10,2013-05-21 17:05:00,
2013-05-21 13:20:00,82.8,70.0,30.01,SE,142,0.0,0.0,65,0.00,,,0.00,weatherlink.com 1.10,2013-05-21 17:20:00,
2013-05-21 13:35:00,82.6,71.0,30.00,West,266,0.0,0.0,68,0.00,,,0.00,weatherlink.com 1.10,2013-05-21 17:35:00,
2013-05-21 13:50:00,83.9,71.0,29.99,NNW,335,0.0,0.0,66,0.00,,,0.00,weatherlink.com 1.10,2013-05-21 17:50:00,
2013-05-21 14:05:00,83.5,70.0,29.99,NE,44,0.0,0.0,64,0.00,,,0.00,weatherlink.com 1.10,2013-05-21 18:05:00,
2013-05-21 14:20:00,81.0,69.0,29.98,NE,43,0.0,0.0,68,0.00,,,0.00,weatherlink.com 1.10,2013-05-21 18:20:00,
2013-05-21 14:35:00,78.6,70.0,29.98,NE,43,0.0,0.0,76,0.00,,,0.00,weatherlink.com 1.10,2013-05-21 18:35:00,
2013-05-21 14:50:00,77.8,72.0,29.98,NE,43,0.0,0.0,81,0.00,,,0.00,weatherlink.com 1.10,2013-05-21 18:50:00,
2013-05-21 15:05:00,76.5,65.0,29.97,North,359,0.0,0.0,68,0.00,,,0.00,weatherlink.com 1.10,2013-05-21 19:05:00,
2013-05-21 15:35:00,85.5,69.0,29.95,SE,141,0.0,0.0,58,0.00,,,0.00,weatherlink.com 1.10,2013-05-21 19:35:00,
2013-05-21 15:50:00,86.3,71.0,29.95,SE,141,0.0,0.0,60,0.00,,,0.00,weatherlink.com 1.10,2013-05-21 19:50:00,
2013-05-21 16:06:00,84.2,70.0,29.94,SE,140,0.0,0.0,62,0.00,,,0.00,weatherlink.com 1.10,2013-05-21 20:06:00,
2013-05-21 16:20:00,83.9,70.0,29.93,East,82,2.0,4.0,63,0.00,,,0.00,weatherlink.com 1.10,2013-05-21 20:20:00,
2013-05-21 16:35:00,83.6,71.0,29.93,NNW,345,2.0,4.0,65,0.00,,,0.00,weatherlink.com 1.10,2013-05-21 20:35:00,
2013-05-21 16:50:00,84.7,69.0,29.93,SE,142,1.0,2.0,59,0.00,,,0.00,weatherlink.com 1.10,2013-05-21 20:50:00,
2013-05-21 17:05:00,85.0,68.0,29.92,SSE,155,4.0,4.0,57,0.00,,,0.00,weatherlink.com 1.10,2013-05-21 21:05:00,
2013-05-21 17:20:00,84.6,68.0,29.93,East,94,4.0,4.0,57,0.00,,,0.00,weatherlink.com 1.10,2013-05-21 21:20:00,
2013-05-21 17:35:00,83.3,68.0,29.93,ESE,115,0.0,3.0,60,0.00,,,0.00,weatherlink.com 1.10,2013-05-21 21:35:00,
2013-05-21 17:50:00,81.6,70.0,29.92,North,5,1.0,3.0,67,0.00,,,0.00,weatherlink.com 1.10,2013-05-21 21:50:00,
2013-05-21 18:05:00,80.8,68.0,29.92,SE,139,1.0,2.0,66,0.00,,,0.00,weatherlink.com 1.10,2013-05-21 22:05:00,
2013-05-21 18:21:00,81.2,70.0,29.92,East,91,2.0,5.0,69,0.00,,,0.00,weatherlink.com 1.10,2013-05-21 22:21:00,
2013-05-21 18:36:00,79.9,71.0,29.91,North,8,1.0,2.0,74,0.00,,,0.00,weatherlink.com 1.10,2013-05-21 22:36:00,
2013-05-21 18:52:00,78.7,69.0,29.91,NNE,27,1.0,2.0,72,0.00,,,0.00,weatherlink.com 1.10,2013-05-21 22:52:00,
2013-05-21 19:06:00,78.3,69.0,29.91,ENE,63,1.0,1.0,74,0.00,,,0.00,weatherlink.com 1.10,2013-05-21 23:06:00,
2013-05-21 19:21:00,76.6,69.0,29.91,North,8,1.0,2.0,77,0.00,,,0.00,weatherlink.com 1.10,2013-05-21 23:21:00,
2013-05-21 19:36:00,76.0,69.0,29.91,North,8,0.0,1.0,78,0.00,,,0.00,weatherlink.com 1.10,2013-05-21 23:36:00,
2013-05-21 19:51:00,75.7,69.0,29.91,North,8,0.0,0.0,79,0.00,,,0.00,weatherlink.com 1.10,2013-05-21 23:51:00,
2013-05-21 20:07:00,75.6,68.0,29.92,North,8,0.0,0.0,78,0.00,,,0.00,weatherlink.com 1.10,2013-05-22 00:07:00,
2013-05-21 20:21:00,74.8,69.0,29.92,North,8,0.0,0.0,82,0.00,,,0.00,weatherlink.com 1.10,2013-05-22 00:21:00,
2013-05-21 20:36:00,73.3,68.0,29.93,North,8,0.0,0.0,83,0.00,,,0.00,weatherlink.com 1.10,2013-05-22 00:36:00,
2013-05-21 20:51:00,72.2,68.0,29.93,North,8,0.0,0.0,86,0.00,,,0.00,weatherlink.com 1.10,2013-05-22 00:51:00,
2013-05-21 21:06:00,71.8,68.0,29.93,North,8,0.0,0.0,87,0.00,,,0.00,weatherlink.com 1.10,2013-05-22 01:06:00,
2013-05-21 21:21:00,71.3,68.0,29.94,North,8,0.0,0.0,88,0.00,,,0.00,weatherlink.com 1.10,2013-05-22 01:21:00,
2013-05-21 21:36:00,70.7,68.0,29.95,North,8,0.0,0.0,90,0.00,,,0.00,weatherlink.com 1.10,2013-05-22 01:36:00,
2013-05-21 21:51:00,70.5,68.0,29.95,North,8,0.0,0.0,90,0.00,,,0.00,weatherlink.com 1.10,2013-05-22 01:51:00,
2013-05-21 22:06:00,70.2,68.0,29.96,North,8,0.0,0.0,91,0.00,,,0.00,weatherlink.com 1.10,2013-05-22 02:06:00,
2013-05-21 22:21:00,69.9,67.0,29.96,North,8,0.0,0.0,91,0.00,,,0.00,weatherlink.com 1.10,2013-05-22 02:21:00,
2013-05-21 22:36:00,69.3,66.0,29.97,SSE,156,0.0,0.0,90,0.00,,,0.00,weatherlink.com 1.10,2013-05-22 02:36:00,
2013-05-21 22:51:00,70.6,65.0,29.97,SSW,210,1.0,3.0,81,0.00,,,0.00,weatherlink.com 1.10,2013-05-22 02:51:00,
2013-05-21 23:06:00,71.4,65.0,29.98,SE,131,1.0,4.0,80,0.00,,,0.00,weatherlink.com 1.10,2013-05-22 03:06:00,
2013-05-21 23:21:00,71.1,65.0,29.99,SSW,208,1.0,2.0,80,0.00,,,0.00,weatherlink.com 1.10,2013-05-22 03:21:00,
2013-05-21 23:36:00,70.7,64.0,29.98,SW,236,0.0,2.0,79,0.00,,,0.00,weatherlink.com 1.10,2013-05-22 03:36:00,
2013-05-21 23:51:00,70.5,63.0,29.98,NNE,25,1.0,4.0,77,0.00,,,0.00,weatherlink.com 1.10,2013-05-22 03:51:00,